Skip Page Navigation
NASA JPL Caltech
NASA Logo - Jet Propulsion Laboratory + View the NASA Portal
+ Center for Near-Earth Object Studies
JPL Home Earth Solar System Stars & Galaxies Technology
JPL Solar System Dynamics
BODIES ORBITS EPHEMERIDES TOOLS PHYSICAL DATA DISCOVERY FAQ SITE MAP
IMPORTANT: The SSD Announcement email list is now available. Major changes are coming in the near future, including possible hostname and/or URL changes. To be notified of such changes, subscribe to this email list.

Please visit this page for more details.


JPL Small-Body Database Browser
Search: [ help ]  
413596 (2005 UK117)
Classification: Main-belt Asteroid          SPK-ID: 2413596
Ephemeris | Orbit Diagram | Orbital Elements | Mission Design | Physical Parameters | Discovery Circumstances ]

[ show orbit diagram ]
Orbital Elements at Epoch 2458600.5 (2019-Apr-27.0) TDB
Reference: JPL 14 (heliocentric ecliptic J2000)
 Element Value Uncertainty (1-sigma)   Units 
e .09646757950431342 8.6081e-08  
a 2.711276958994657 3.7692e-08 au
q 2.449726633394627 2.4733e-07 au
i 2.09803294348383 9.5764e-06 deg
node 15.09408067504338 0.00019073 deg
peri 325.3413485926954 0.00019683 deg
M 48.960320439516 5.4897e-05 deg
tp 2458378.730915984647
(2018-Sep-17.23091598)
0.00024619 TDB
period 1630.644357080036
4.46
3.4004e-05
9.31e-08
d
yr
n .220771622234443 4.6038e-09 deg/d
Q 2.972827284594688 4.1328e-08 au
  Orbit Determination Parameters
   # obs. used (total)      115  
   data-arc span      5648 days (15.46 yr)  
   first obs. used      2003-03-30  
   last obs. used      2018-09-15  
   planetary ephem.      DE431  
   SB-pert. ephem.      SB431-N16  
   condition code      0  
   norm. resid. RMS      .65512  
   source      ORB  
   producer      Otto Matic  
   solution date      2018-Oct-03 13:10:37  

Additional Information
 Earth MOID = 1.44055 au 
 Jupiter MOID = 2.36117 au 
 T_jup = 3.355 
[ show covariance matrix ]

Ephemeris | Orbit Diagram | Orbital Elements | Mission Design | Physical Parameters | Discovery Circumstances ]

Physical Parameter Table
Parameter Symbol Value Units Sigma Reference Notes
absolute magnitude H 17.3   n/a MPO455945  

413596 (2005 UK117)          Discovered 2005-Oct-24 by Spacewatch at Kitt Peak
Reference: Last Updated: 2014-11-10
Ephemeris | Orbit Diagram | Orbital Elements | Mission Design | Physical Parameters | Discovery Circumstances ]
ABOUT SSD CREDITS/AWARDS PRIVACY/COPYRIGHT GLOSSARY LINKS
FirstGov
(server date/time)  
NASA Home Page
Site Manager:   Ryan S. Park
Webmaster  Alan B. Chamberlin